Regional Weather Roundup
Issued by NWS

Home | Current Version | Previous Version | Text Only | Print | Product List | Glossary Off
Versions: 1 2 3 4 5 6 7 8 9 10 11 12 13 14 15 16 17 18 19 20 21 22 23 24 25 26 27 28 29 30 31 32 33 34 35 36 37 38 39 40 41 42 43 44 45 46 47 48 49 50

000
ASUS43 KBIS 220710
RWRND

NORTH DAKOTA REGIONAL WEATHER ROUNDUP
NATIONAL WEATHER SERVICE BISMARCK ND
200 AM CDT SUN APR 22 2018

NOTE: "FAIR" INDICATES FEW OR NO CLOUDS BELOW 12,000 FEET WITH NO
SIGNIFICANT WEATHER AND/OR OBSTRUCTIONS TO VISIBILITY.


NDZ001>003-009>011-017-220800-
NORTHWEST NORTH DAKOTA

CITY           SKY/WX    TMP DP  RH WIND       PRES   REMARKS
WILLISTON      PTCLDY    48  39  71 SW3       30.05R
MINOT          PTCLDY    46  37  71 S25G38    30.05S
MINOT AFB      CLOUDY    45  37  73 S23G29    30.04R
$$

NDZ018>021-031>035-040>046-220800-
SOUTHWEST NORTH DAKOTA

CITY           SKY/WX    TMP DP  RH WIND       PRES   REMARKS
BISMARCK       CLEAR     44  35  70 S12       30.17F
DICKINSON      MOCLDY    40  36  86 S16G26    30.05R
GARRISON         N/A     40  35  83 S12       30.10S
HETTINGER ARPT PTCLDY    39  35  86 SE12      30.12S
$$

NDZ004>008-012>016-024-026-027-054-220800-
NORTHEAST NORTH DAKOTA

CITY           SKY/WX    TMP DP  RH WIND       PRES   REMARKS
GRAND FORKS    FAIR      41  40  96 S10       30.23R
GRND FRKS AFB  FAIR      39  38  94 S10       30.22S
DEVILS LAKE    FAIR      43  33  68 S16       30.19S
$$

NDZ022-023-025-028>030-036>039-047>053-220800-
SOUTHEAST NORTH DAKOTA

CITY           SKY/WX    TMP DP  RH WIND       PRES   REMARKS
FARGO          FAIR      43  36  76 S12       30.27S
JAMESTOWN      CLEAR     37  32  82 S7        30.22R
$$





USA.gov is the U.S. government's official web portal to all federal, state and local government web resources and services.